Stündliche Wetter Julinek

Heute, 8 März, Montag

Zeit Temperatur Niederschläge Wind Luftdruck Luftfeuchtigkeit
00:00 -2°C° 0.1 mm 3 m/S 751 mmHg 84%
01:00 -4°C° 0 mm 3 m/S 751 mmHg 89%
02:00 -5°C° 0 mm 3 m/S 751 mmHg 89%
03:00 -5°C° 0 mm 3 m/S 751 mmHg 89%
04:00 -6°C° 0 mm 3 m/S 751 mmHg 89%
05:00 -6°C° 0 mm 3 m/S 752 mmHg 87%
06:00 -6°C° 0 mm 3 m/S 752 mmHg 85%
07:00 -5°C° 0 mm 3 m/S 752 mmHg 83%
08:00 -4°C° 0 mm 4 m/S 753 mmHg 77%
09:00 -3°C° 0 mm 4 m/S 754 mmHg 72%
10:00 -1°C° 0 mm 5 m/S 754 mmHg 67%
11:00 -1°C° 0.1 mm 5 m/S 754 mmHg 64%
12:00 0°C° 0.1 mm 5 m/S 754 mmHg 61%
13:00 0°C° 0.1 mm 5 m/S 754 mmHg 58%
14:00 0°C° 0.1 mm 5 m/S 754 mmHg 59%
15:00 0°C° 0.1 mm 4 m/S 754 mmHg 61%
16:00 0°C° 0.1 mm 4 m/S 755 mmHg 62%
17:00 -1°C° 0 mm 4 m/S 755 mmHg 67%
18:00 -1°C° 0 mm 3 m/S 755 mmHg 72%
19:00 -4°C° 0 mm 3 m/S 756 mmHg 77%
20:00 -4°C° 0 mm 3 m/S 756 mmHg 79%
21:00 -3°C° 0 mm 2 m/S 756 mmHg 81%
22:00 -4°C° 0 mm 2 m/S 757 mmHg 82%
23:00 -4°C° 0 mm 2 m/S 757 mmHg 83%

Morgen, 9 März, Dienstag

Zeit Temperatur Niederschläge Wind Luftdruck Luftfeuchtigkeit
00:00 -4°C° 0 mm 2 m/S 757 mmHg 84%
01:00 -4°C° 0 mm 2 m/S 757 mmHg 84%
02:00 -5°C° 0 mm 2 m/S 757 mmHg 84%
03:00 -5°C° 0 mm 2 m/S 757 mmHg 84%
04:00 -5°C° 0 mm 2 m/S 757 mmHg 83%
05:00 -2°C° 0 mm 1 m/S 757 mmHg 81%
06:00 -2°C° 0 mm 1 m/S 757 mmHg 79%
07:00 -2°C° 0 mm 1 m/S 757 mmHg 77%
08:00 -1°C° 0 mm 1 m/S 757 mmHg 70%
09:00 0°C° 0 mm 1 m/S 757 mmHg 62%
10:00 0°C° 0 mm 1 m/S 758 mmHg 55%
11:00 +1°C° 0 mm 1 m/S 758 mmHg 52%
12:00 +1°C° 0 mm 1 m/S 757 mmHg 49%
13:00 +2°C° 0 mm 1 m/S 757 mmHg 46%
14:00 +2°C° 0 mm 1 m/S 757 mmHg 47%
15:00 +2°C° 0 mm 1 m/S 757 mmHg 47%
16:00 +2°C° 0 mm 1 m/S 756 mmHg 48%
17:00 +1°C° 0 mm 1 m/S 756 mmHg 52%
18:00 0°C° 0 mm 1 m/S 757 mmHg 56%
19:00 -3°C° 0 mm 2 m/S 757 mmHg 60%
20:00 -3°C° 0 mm 2 m/S 757 mmHg 61%
21:00 -3°C° 0 mm 2 m/S 757 mmHg 61%
22:00 -3°C° 0 mm 2 m/S 757 mmHg 62%
23:00 -4°C° 0 mm 2 m/S 757 mmHg 64%

übermorgen, 10 März, Mittwoch

Zeit Temperatur Niederschläge Wind Luftdruck Luftfeuchtigkeit
00:00 -4°C° 0 mm 2 m/S 757 mmHg 66%
01:00 -2°C° 0 mm 1 m/S 757 mmHg 68%
02:00 -2°C° 0 mm 1 m/S 757 mmHg 69%
03:00 -2°C° 0 mm 1 m/S 757 mmHg 69%
04:00 -2°C° 0 mm 1 m/S 756 mmHg 69%
05:00 -2°C° 0 mm 1 m/S 757 mmHg 69%
06:00 -2°C° 0 mm 1 m/S 757 mmHg 68%
07:00 -2°C° 0 mm 1 m/S 757 mmHg 68%
08:00 0°C° 0 mm 1 m/S 757 mmHg 62%
09:00 +1°C° 0 mm 1 m/S 757 mmHg 56%
10:00 +2°C° 0 mm 1 m/S 757 mmHg 50%
11:00 +2°C° 0 mm 1 m/S 757 mmHg 47%
12:00 +3°C° 0 mm 1 m/S 757 mmHg 44%
13:00 +2°C° 0 mm 0 m/S 757 mmHg 41%
14:00 +2°C° 0 mm 0 m/S 757 mmHg 41%
15:00 +2°C° 0 mm 0 m/S 757 mmHg 42%
16:00 +2°C° 0 mm 0 m/S 757 mmHg 43%
17:00 +2°C° 0 mm 1 m/S 757 mmHg 47%
18:00 +1°C° 0 mm 1 m/S 757 mmHg 51%
19:00 0°C° 0 mm 1 m/S 757 mmHg 56%
20:00 -1°C° 0 mm 1 m/S 758 mmHg 57%
21:00 -1°C° 0 mm 1 m/S 758 mmHg 58%
22:00 -1°C° 0 mm 1 m/S 758 mmHg 59%
23:00 -3°C° 0 mm 2 m/S 758 mmHg 60%

11 März, Donnerstag

Zeit Temperatur Niederschläge Wind Luftdruck Luftfeuchtigkeit
00:00 -3°C° 0 mm 2 m/S 758 mmHg 61%
01:00 -3°C° 0 mm 2 m/S 758 mmHg 62%
02:00 -3°C° 0 mm 2 m/S 757 mmHg 62%
03:00 -3°C° 0 mm 2 m/S 757 mmHg 63%
04:00 -3°C° 0 mm 2 m/S 757 mmHg 63%
05:00 -4°C° 0 mm 3 m/S 756 mmHg 61%
06:00 -4°C° 0 mm 3 m/S 756 mmHg 59%
07:00 -4°C° 0 mm 3 m/S 756 mmHg 58%
08:00 -2°C° 0 mm 4 m/S 756 mmHg 53%
09:00 -1°C° 0 mm 5 m/S 755 mmHg 48%
10:00 0°C° 0 mm 5 m/S 755 mmHg 44%
11:00 +1°C° 0 mm 6 m/S 754 mmHg 44%
12:00 +1°C° 0 mm 6 m/S 753 mmHg 44%
13:00 +2°C° 0 mm 6 m/S 753 mmHg 44%
14:00 +1°C° 0 mm 6 m/S 752 mmHg 46%
15:00 +1°C° 0 mm 6 m/S 751 mmHg 48%
16:00 +1°C° 0 mm 6 m/S 750 mmHg 50%
17:00 -1°C° 0.3 mm 6 m/S 749 mmHg 61%
18:00 -1°C° 0.3 mm 6 m/S 749 mmHg 72%
19:00 -2°C° 0.3 mm 6 m/S 748 mmHg 82%
20:00 -2°C° 0.6 mm 6 m/S 747 mmHg 87%
21:00 -1°C° 0.6 mm 6 m/S 747 mmHg 91%
22:00 -1°C° 0.6 mm 6 m/S 746 mmHg 96%
23:00 -1°C° 0.4 mm 6 m/S 745 mmHg 94%

12 März, Freitag

Zeit Temperatur Niederschläge Wind Luftdruck Luftfeuchtigkeit
00:00 +1°C° 0.4 mm 6 m/S 745 mmHg 92%
01:00 +2°C° 0.4 mm 6 m/S 744 mmHg 90%
02:00 +2°C° 0.2 mm 6 m/S 744 mmHg 91%
03:00 +2°C° 0.2 mm 5 m/S 744 mmHg 92%
04:00 +2°C° 0.2 mm 5 m/S 744 mmHg 93%
05:00 +2°C° 0 mm 5 m/S 744 mmHg 93%
06:00 +2°C° 0 mm 5 m/S 744 mmHg 93%
07:00 +2°C° 0 mm 5 m/S 745 mmHg 93%
08:00 +3°C° 0 mm 6 m/S 745 mmHg 87%
09:00 +4°C° 0 mm 7 m/S 746 mmHg 82%
10:00 +5°C° 0 mm 8 m/S 746 mmHg 76%
11:00 +5°C° 0.1 mm 7 m/S 746 mmHg 75%
12:00 +5°C° 0.1 mm 7 m/S 747 mmHg 73%
13:00 +5°C° 0.1 mm 7 m/S 747 mmHg 71%
14:00 +5°C° 0 mm 6 m/S 747 mmHg 69%
15:00 +6°C° 0 mm 5 m/S 748 mmHg 68%
16:00 +6°C° 0 mm 4 m/S 748 mmHg 66%
17:00 +5°C° 0 mm 4 m/S 748 mmHg 70%
18:00 +4°C° 0 mm 3 m/S 748 mmHg 73%
19:00 +3°C° 0 mm 3 m/S 749 mmHg 77%
20:00 +2°C° 0 mm 3 m/S 749 mmHg 78%
21:00 +2°C° 0 mm 3 m/S 749 mmHg 79%
22:00 +2°C° 0 mm 3 m/S 749 mmHg 80%
23:00 +1°C° 0 mm 4 m/S 749 mmHg 81%

13 März, Samstag

Zeit Temperatur Niederschläge Wind Luftdruck Luftfeuchtigkeit
00:00 +1°C° 0 mm 4 m/S 748 mmHg 82%
01:00 0°C° 0 mm 4 m/S 748 mmHg 83%
02:00 0°C° 0 mm 4 m/S 748 mmHg 83%
03:00 0°C° 0 mm 4 m/S 748 mmHg 83%
04:00 0°C° 0 mm 5 m/S 747 mmHg 84%
05:00 0°C° 0 mm 5 m/S 747 mmHg 83%
06:00 0°C° 0 mm 5 m/S 747 mmHg 83%
07:00 +1°C° 0 mm 5 m/S 747 mmHg 82%
08:00 +2°C° 0 mm 5 m/S 747 mmHg 77%
09:00 +5°C° 0 mm 5 m/S 747 mmHg 73%
10:00 +5°C° 0 mm 6 m/S 747 mmHg 68%
11:00 +5°C° 0 mm 6 m/S 747 mmHg 69%
12:00 +5°C° 0 mm 6 m/S 747 mmHg 71%
13:00 +5°C° 0 mm 6 m/S 747 mmHg 72%
14:00 +6°C° 0.1 mm 5 m/S 747 mmHg 74%
15:00 +6°C° 0.1 mm 5 m/S 747 mmHg 76%
16:00 +6°C° 0.1 mm 4 m/S 747 mmHg 78%
17:00 +5°C° 0 mm 4 m/S 747 mmHg 81%
18:00 +4°C° 0 mm 4 m/S 747 mmHg 83%
19:00 +3°C° 0 mm 4 m/S 747 mmHg 86%
20:00 +3°C° 0 mm 4 m/S 747 mmHg 87%
21:00 +3°C° 0 mm 4 m/S 747 mmHg 87%
22:00 +3°C° 0 mm 4 m/S 747 mmHg 88%
23:00 +1°C° 0 mm 4 m/S 746 mmHg 87%
Mehr zeigen

Wir brauchen deine Erlaubnis

Meteoprog und unser Service Anbieter werden persönliche Daten aufbewahren, so wie Cookies, Geräte Bezeichnung oder ähnliche Technologien von deinem Gerät und Prozess, so wie Persönliche Daten Inhalte und Werbungen, genauso wie social Media und den Verkehr zu analysieren.

  • Aufbewahrung und/oder Zugang zu deiner Geräte Informationen.

    Cookies, Geräte Bezeichnung oder andere Informationen, können aufbewahrt oder Zugang zu deinem Gerät erhalten, für den Grund, der oben angegeben wird.

  • Personalisierte Werbung und Inhalte, Messungen, Einblick in das Publikum und Produkt Entwicklung.

    Werbungen und Inhalte können personalisiert werden, basierend auf ein Profil. Mehr Daten können besser personalisierte Werbungen und Inhalte hinzufügen. Werbung und Inhalte können gezeigt und gemessen werden. Einblicke über das Publikum, welche die Werbung gesehen haben und den Inhalt, können abgeleitet werden. So wie Daten können genutzt werden, um es zu verbessern oder die Benutzer Erfahrung zu verbessern das System und die Software.

Wenn du “Ich stimme zu” klickst, erlaubst du uns, die Cookies zu benutzen die Geräte Bezeichnung, den Web oder ähnliche Technologien zu benutzen. Deine Settings, können in deinem Gerät bei deinem Browser geändert werden.

Für den bestimmten Zweck, berechtigten Interessen beruhen darauf, mehr als auf den Inhalt. Du kannst mehr darüber in unseren Privaten und Cookie Politik lesen.